Regional Weather Roundup
Issued by NWS

Home | Current Version | Previous Version | Graphics & Text | Print | Product List | Glossary On
Versions: 1 2 3 4 5 6 7 8 9 10 11 12 13 14 15 16 17 18 19 20 21 22 23 24 25 26 27 28 29 30 31 32 33 34 35 36 37 38 39 40 41 42 43 44 45 46 47 48 49 50
000
ASUS43 KLMK 180310
RWRKY
KENTUCKY REGIONAL WEATHER ROUNDUP
NATIONAL WEATHER SERVICE LOUISVILLE KY
1100 PM EDT WED SEP 17 2014

NOTE "FAIR" INDICATES FEW OR NO CLOUDS BELOW 12,000 FEET
WITH NO SIGNIFICANT WEATHER AND/OR OBSTRUCTIONS TO VISIBILITY.

KYZ001>023-026-027-061>063-070>075-180400-
WESTERN AND SOUTH CENTRAL KENTUCKY

CITY           SKY/WX    TMP DP  RH WIND       PRES   REMARKS
PADUCAH        PTCLDY    66  60  81 SW3       29.97R
HENDERSON      CLOUDY    63  55  77 CALM      29.98R
OWENSBORO      CLOUDY    65  57  75 NE5       29.98R
HOPKINSVILLE   PTCLDY    63  59  87 CALM      29.98R
BOWLING GREEN  PTCLDY    65  55  70 CALM      29.98S
GLASGOW        CLOUDY    59  58  98 CALM      29.98S
$$

KYZ024-025-028>034-038-045-046-053-180400-
NORTH CENTRAL KENTUCKY

CITY           SKY/WX    TMP DP  RH WIND       PRES   REMARKS
LOUISVILLE/SDF PTCLDY    62  53  72 N7        29.99R
LOUISVILLE/LOU PTCLDY    60  54  80 N3        30.00R
FORT KNOX      CLOUDY    60  56  85 N5        29.98R
$$

KYZ035>037-039>044-047>052-055>060-089>105-180400-
NORTHEAST KENTUCKY

CITY           SKY/WX    TMP DP  RH WIND       PRES   REMARKS
LEXINGTON      PTCLDY    57  52  83 N3        29.99S
COVINGTON      CLEAR     58  49  72 N5        30.01R
FRANKFORT      PTCLDY    56  53  90 CALM      29.99R
$$

KYZ054-064>069-076>088-106>120-180400-
SOUTHEAST KENTUCKY

CITY           SKY/WX    TMP DP  RH WIND       PRES   REMARKS
JACKSON        CLEAR     59  54  83 E3        29.99F
LONDON         CLEAR     59  55  87 CALM      29.97F
SOMERSET       NOT AVBL
MIDDLESBORO    CLEAR     56  55  95 CALM      29.99F
MONTICELLO     PTCLDY    59  57  92 CALM      30.01R
$$




USA.gov is the U.S. government's official web portal to all federal, state and local government web resources and services.